Time,TemperatureF,DewpointF,PressureIn,WindDirection,WindDirectionDegrees,WindSpeedMPH,WindSpeedGustMPH,Humidity,HourlyPrecipIn,Conditions,Clouds,dailyrainin,SolarRadiationWatts/m^2,SoftwareType,DateUTC
2013-02-06 00:00:00,38.6,12.7,29.99,WSW,248,5.0,14.0,34,0.00,,,0.00,0,WeatherCatV1.12B45,2013-02-06 07:00:00,
2013-02-06 00:05:00,38.5,12.6,29.99,WSW,248,6.0,19.0,34,0.00,,,0.00,0,WeatherCatV1.12B45,2013-02-06 07:05:00,
2013-02-06 00:10:00,38.5,12.6,29.99,WSW,248,6.0,19.0,34,0.00,,,0.00,0,WeatherCatV1.12B45,2013-02-06 07:10:00,
2013-02-06 00:15:00,38.5,12.6,29.99,WSW,248,6.0,19.0,34,0.00,,,0.00,0,WeatherCatV1.12B45,2013-02-06 07:15:00,
2013-02-06 00:20:00,37.8,12.0,29.99,NW,315,6.0,16.0,34,0.00,,,0.00,0,WeatherCatV1.12B45,2013-02-06 07:20:00,
2013-02-06 00:25:00,37.8,12.0,29.99,NW,315,6.0,16.0,34,0.00,,,0.00,0,WeatherCatV1.12B45,2013-02-06 07:25:00,
2013-02-06 00:30:00,37.8,12.0,29.99,NW,315,6.0,16.0,34,0.00,,,0.00,0,WeatherCatV1.12B45,2013-02-06 07:30:00,
2013-02-06 00:35:00,37.3,10.9,29.98,WNW,292,8.0,14.0,33,0.00,,,0.00,0,WeatherCatV1.12B45,2013-02-06 07:35:00,
2013-02-06 00:40:00,37.3,10.9,29.98,WNW,292,8.0,14.0,33,0.00,,,0.00,0,WeatherCatV1.12B45,2013-02-06 07:40:00,
2013-02-06 00:45:00,37.3,10.9,29.98,WNW,292,8.0,14.0,33,0.00,,,0.00,0,WeatherCatV1.12B45,2013-02-06 07:45:00,
2013-02-06 00:50:00,36.8,9.7,29.98,WNW,292,7.0,17.0,32,0.00,,,0.00,0,WeatherCatV1.12B45,2013-02-06 07:50:00,
2013-02-06 00:55:00,36.8,9.7,29.98,WNW,292,7.0,17.0,32,0.00,,,0.00,0,WeatherCatV1.12B45,2013-02-06 07:55:00,
2013-02-06 01:00:00,36.8,9.7,29.98,WNW,292,7.0,17.0,32,0.00,,,0.00,0,WeatherCatV1.12B45,2013-02-06 08:00:00,
2013-02-06 01:05:00,36.5,9.5,29.97,NW,315,7.0,14.0,32,0.00,,,0.00,0,WeatherCatV1.12B45,2013-02-06 08:05:00,
2013-02-06 01:10:00,36.5,9.5,29.97,NW,315,7.0,14.0,32,0.00,,,0.00,0,WeatherCatV1.12B45,2013-02-06 08:10:00,
2013-02-06 01:15:00,36.5,10.2,29.97,NW,315,6.0,13.0,33,0.00,,,0.00,0,WeatherCatV1.12B45,2013-02-06 08:15:00,
2013-02-06 01:20:00,36.5,10.2,29.97,NW,315,6.0,13.0,33,0.00,,,0.00,0,WeatherCatV1.12B45,2013-02-06 08:20:00,
2013-02-06 01:25:00,36.5,10.2,29.97,NW,315,6.0,13.0,33,0.00,,,0.00,0,WeatherCatV1.12B45,2013-02-06 08:25:00,
2013-02-06 01:30:00,35.9,10.3,29.97,WSW,248,3.0,13.0,34,0.00,,,0.00,0,WeatherCatV1.12B45,2013-02-06 08:30:00,
2013-02-06 01:35:00,35.9,10.3,29.97,WSW,248,3.0,13.0,34,0.00,,,0.00,0,WeatherCatV1.12B45,2013-02-06 08:35:00,
2013-02-06 01:40:00,35.9,10.3,29.97,WSW,248,3.0,13.0,34,0.00,,,0.00,0,WeatherCatV1.12B45,2013-02-06 08:40:00,
2013-02-06 01:45:00,35.5,10.6,29.97,NNW,338,3.0,8.0,35,0.00,,,0.00,0,WeatherCatV1.12B45,2013-02-06 08:45:00,
2013-02-06 01:50:00,35.5,10.6,29.97,NNW,338,3.0,8.0,35,0.00,,,0.00,0,WeatherCatV1.12B45,2013-02-06 08:50:00,
2013-02-06 01:55:00,35.5,10.6,29.97,NNW,338,3.0,8.0,35,0.00,,,0.00,0,WeatherCatV1.12B45,2013-02-06 08:55:00,
2013-02-06 02:00:00,35.5,10.6,29.97,NNW,338,3.0,8.0,35,0.00,,,0.00,0,WeatherCatV1.12B45,2013-02-06 09:00:00,
2013-02-06 02:05:00,33.7,10.8,29.96,NNW,338,1.0,5.0,38,0.00,,,0.00,0,WeatherCatV1.12B45,2013-02-06 09:05:00,
2013-02-06 02:10:00,33.7,10.8,29.96,NNW,338,1.0,5.0,38,0.00,,,0.00,0,WeatherCatV1.12B45,2013-02-06 09:10:00,
2013-02-06 02:15:00,33.7,10.8,29.96,NNW,338,1.0,5.0,38,0.00,,,0.00,0,WeatherCatV1.12B45,2013-02-06 09:15:00,
2013-02-06 02:20:00,32.9,11.2,29.96,NW,315,0.0,5.0,40,0.00,,,0.00,0,WeatherCatV1.12B45,2013-02-06 09:20:00,
2013-02-06 02:25:00,32.9,11.2,29.96,NW,315,0.0,5.0,40,0.00,,,0.00,0,WeatherCatV1.12B45,2013-02-06 09:25:00,
2013-02-06 02:30:00,32.9,11.2,29.96,NW,315,0.0,5.0,40,0.00,,,0.00,0,WeatherCatV1.12B45,2013-02-06 09:30:00,
2013-02-06 02:35:00,31.5,11.1,29.96,NW,315,1.0,5.0,42,0.00,,,0.00,0,WeatherCatV1.12B45,2013-02-06 09:35:00,
2013-02-06 02:40:00,31.5,11.1,29.96,NW,315,1.0,5.0,42,0.00,,,0.00,0,WeatherCatV1.12B45,2013-02-06 09:40:00,
2013-02-06 02:45:00,31.5,11.1,29.96,NW,315,1.0,5.0,42,0.00,,,0.00,0,WeatherCatV1.12B45,2013-02-06 09:45:00,
2013-02-06 02:50:00,29.8,12.1,29.96,NW,315,2.0,6.0,47,0.00,,,0.00,0,WeatherCatV1.12B45,2013-02-06 09:50:00,
2013-02-06 02:55:00,29.8,12.1,29.96,NW,315,2.0,6.0,47,0.00,,,0.00,0,WeatherCatV1.12B45,2013-02-06 09:55:00,
2013-02-06 03:00:00,29.8,12.1,29.96,NW,315,2.0,6.0,47,0.00,,,0.00,0,WeatherCatV1.12B45,2013-02-06 10:00:00,
2013-02-06 03:05:00,28.4,12.2,29.96,NW,315,2.0,7.0,50,0.00,,,0.00,0,WeatherCatV1.12B45,2013-02-06 10:05:00,
2013-02-06 03:10:00,28.4,12.2,29.96,NW,315,2.0,7.0,50,0.00,,,0.00,0,WeatherCatV1.12B45,2013-02-06 10:10:00,
2013-02-06 03:15:00,28.4,12.2,29.96,NW,315,2.0,7.0,50,0.00,,,0.00,0,WeatherCatV1.12B45,2013-02-06 10:15:00,
2013-02-06 03:20:00,28.4,11.2,29.96,NW,315,0.0,1.0,48,0.00,,,0.00,0,WeatherCatV1.12B45,2013-02-06 10:20:00,
2013-02-06 03:25:00,28.4,11.2,29.96,NW,315,0.0,1.0,48,0.00,,,0.00,0,WeatherCatV1.12B45,2013-02-06 10:25:00,
2013-02-06 03:30:00,28.4,11.2,29.96,NW,315,0.0,1.0,48,0.00,,,0.00,0,WeatherCatV1.12B45,2013-02-06 10:30:00,
2013-02-06 03:35:00,28.1,11.4,29.95,NW,315,0.0,4.0,49,0.00,,,0.00,0,WeatherCatV1.12B45,2013-02-06 10:35:00,
2013-02-06 03:40:00,28.1,11.4,29.95,NW,315,0.0,4.0,49,0.00,,,0.00,0,WeatherCatV1.12B45,2013-02-06 10:40:00,
2013-02-06 03:45:00,28.1,11.4,29.95,NW,315,0.0,4.0,49,0.00,,,0.00,0,WeatherCatV1.12B45,2013-02-06 10:45:00,
2013-02-06 03:50:00,27.9,11.2,29.95,NW,315,0.0,3.0,49,0.00,,,0.00,0,WeatherCatV1.12B45,2013-02-06 10:50:00,
2013-02-06 03:55:00,27.9,11.2,29.95,NW,315,0.0,3.0,49,0.00,,,0.00,0,WeatherCatV1.12B45,2013-02-06 10:55:00,
2013-02-06 04:00:00,27.9,11.2,29.95,NW,315,0.0,3.0,49,0.00,,,0.00,0,WeatherCatV1.12B45,2013-02-06 11:00:00,
2013-02-06 04:05:00,28.5,11.3,29.95,NW,315,2.0,5.0,48,0.00,,,0.00,0,WeatherCatV1.12B45,2013-02-06 11:05:00,
2013-02-06 04:10:00,28.5,11.3,29.95,NW,315,2.0,5.0,48,0.00,,,0.00,0,WeatherCatV1.12B45,2013-02-06 11:10:00,
2013-02-06 04:15:00,28.5,11.3,29.95,NW,315,2.0,5.0,48,0.00,,,0.00,0,WeatherCatV1.12B45,2013-02-06 11:15:00,
2013-02-06 04:20:00,27.9,11.7,29.95,NNW,338,3.0,7.0,50,0.00,,,0.00,0,WeatherCatV1.12B45,2013-02-06 11:20:00,
2013-02-06 04:25:00,27.9,11.7,29.95,NNW,338,3.0,7.0,50,0.00,,,0.00,0,WeatherCatV1.12B45,2013-02-06 11:25:00,
2013-02-06 04:30:00,27.9,11.7,29.95,NNW,338,3.0,7.0,50,0.00,,,0.00,0,WeatherCatV1.12B45,2013-02-06 11:30:00,
2013-02-06 04:35:00,30.6,10.3,29.94,WSW,248,4.0,16.0,42,0.00,,,0.00,0,WeatherCatV1.12B45,2013-02-06 11:35:00,
2013-02-06 04:40:00,30.6,10.3,29.94,WSW,248,4.0,16.0,42,0.00,,,0.00,0,WeatherCatV1.12B45,2013-02-06 11:40:00,
2013-02-06 04:45:00,30.6,10.3,29.94,WSW,248,4.0,16.0,42,0.00,,,0.00,0,WeatherCatV1.12B45,2013-02-06 11:45:00,
2013-02-06 04:50:00,34.0,10.5,29.94,SSE,158,13.0,27.0,37,0.00,,,0.00,0,WeatherCatV1.12B45,2013-02-06 11:50:00,
2013-02-06 04:55:00,34.0,10.5,29.94,SSE,158,13.0,27.0,37,0.00,,,0.00,0,WeatherCatV1.12B45,2013-02-06 11:55:00,
2013-02-06 05:07:00,34.0,10.5,29.94,SSE,158,13.0,27.0,37,0.00,,,0.00,0,WeatherCatV1.12B45,2013-02-06 12:07:00,
2013-02-06 05:12:00,29.8,10.6,29.94,North,4,5.0,6.0,44,0.00,,,0.00,0,WeatherCatV1.12B45,2013-02-06 12:12:00,
2013-02-06 05:17:00,29.7,11.0,29.94,North,0,6.0,8.0,45,0.00,,,0.00,0,WeatherCatV1.12B45,2013-02-06 12:17:00,
2013-02-06 05:22:00,29.3,11.1,29.94,North,0,5.0,8.0,46,0.00,,,0.00,0,WeatherCatV1.12B45,2013-02-06 12:22:00,
2013-02-06 05:27:00,28.1,11.0,29.94,North,0,7.0,10.0,48,0.00,,,0.00,0,WeatherCatV1.12B45,2013-02-06 12:27:00,
2013-02-06 05:32:00,27.6,11.4,29.94,North,1,6.0,10.0,50,0.00,,,0.00,0,WeatherCatV1.12B45,2013-02-06 12:32:00,
2013-02-06 05:37:00,27.8,11.2,29.94,North,0,6.0,8.0,49,0.00,,,0.00,0,WeatherCatV1.12B45,2013-02-06 12:37:00,
2013-02-06 05:42:00,27.6,11.4,29.94,North,356,6.0,7.0,50,0.00,,,0.00,0,WeatherCatV1.12B45,2013-02-06 12:42:00,
2013-02-06 05:47:00,27.5,11.3,29.94,North,356,5.0,8.0,50,0.00,,,0.00,0,WeatherCatV1.12B45,2013-02-06 12:47:00,
2013-02-06 05:52:00,27.3,11.6,29.94,North,354,7.0,8.0,51,0.00,,,0.00,0,WeatherCatV1.12B45,2013-02-06 12:52:00,
2013-02-06 05:57:00,27.3,11.1,29.94,North,0,2.0,5.0,50,0.00,,,0.00,0,WeatherCatV1.12B45,2013-02-06 12:57:00,
2013-02-06 06:02:00,27.3,11.6,29.94,North,4,8.0,8.0,51,0.00,,,0.00,0,WeatherCatV1.12B45,2013-02-06 13:02:00,
2013-02-06 06:07:00,27.2,11.5,29.94,North,6,2.0,7.0,51,0.00,,,0.00,0,WeatherCatV1.12B45,2013-02-06 13:07:00,
2013-02-06 06:12:00,26.9,11.7,29.94,North,6,2.0,2.0,52,0.00,,,0.00,0,WeatherCatV1.12B45,2013-02-06 13:12:00,
2013-02-06 06:17:00,26.4,11.6,29.94,North,6,2.0,7.0,53,0.00,,,0.00,0,WeatherCatV1.12B45,2013-02-06 13:17:00,
2013-02-06 06:22:00,27.5,12.2,29.94,North,6,0.0,2.0,52,0.00,,,0.00,0,WeatherCatV1.12B45,2013-02-06 13:22:00,
2013-02-06 06:27:00,28.5,12.3,29.94,North,6,0.0,0.0,50,0.00,,,0.00,0,WeatherCatV1.12B45,2013-02-06 13:27:00,
2013-02-06 06:32:00,29.7,12.0,29.94,North,6,5.0,5.0,47,0.00,,,0.00,0,WeatherCatV1.12B45,2013-02-06 13:32:00,
2013-02-06 06:37:00,30.7,12.4,29.94,North,6,0.0,0.0,46,0.00,,,0.00,0,WeatherCatV1.12B45,2013-02-06 13:37:00,
2013-02-06 06:42:00,31.8,12.4,29.94,WNW,302,7.0,9.0,44,0.00,,,0.00,0,WeatherCatV1.12B45,2013-02-06 13:42:00,
2013-02-06 06:47:00,32.7,12.2,29.94,SW,234,0.0,3.0,42,0.00,,,0.00,0,WeatherCatV1.12B45,2013-02-06 13:47:00,
2013-02-06 06:52:00,33.1,12.0,29.94,NW,312,0.0,0.0,41,0.00,,,0.00,0,WeatherCatV1.12B45,2013-02-06 13:52:00,
2013-02-06 06:57:00,33.2,12.1,29.94,NW,306,0.0,5.0,41,0.00,,,0.00,0,WeatherCatV1.12B45,2013-02-06 13:57:00,
2013-02-06 07:02:00,33.7,12.0,29.94,SSW,196,0.0,0.0,40,0.00,,,0.00,5,WeatherCatV1.12B45,2013-02-06 14:02:00,
2013-02-06 07:07:00,33.8,12.1,29.94,SSW,193,5.0,9.0,40,0.00,,,0.00,7,WeatherCatV1.12B45,2013-02-06 14:07:00,
2013-02-06 07:12:00,34.6,11.6,29.94,SW,226,2.0,11.0,38,0.00,,,0.00,11,WeatherCatV1.12B45,2013-02-06 14:12:00,
2013-02-06 07:17:00,34.7,11.7,29.94,WNW,282,0.0,7.0,38,0.00,,,0.00,11,WeatherCatV1.12B45,2013-02-06 14:17:00,
2013-02-06 07:22:00,34.9,11.9,29.94,SW,227,10.0,11.0,38,0.00,,,0.00,12,WeatherCatV1.12B45,2013-02-06 14:22:00,
2013-02-06 07:27:00,35.0,12.0,29.94,WSW,258,1.0,5.0,38,0.00,,,0.00,14,WeatherCatV1.12B45,2013-02-06 14:27:00,
2013-02-06 07:32:00,35.5,11.8,29.95,West,260,0.0,11.0,37,0.00,,,0.00,53,WeatherCatV1.12B45,2013-02-06 14:32:00,
2013-02-06 07:37:00,36.0,12.3,29.95,SW,234,2.0,8.0,37,0.00,,,0.00,79,WeatherCatV1.12B45,2013-02-06 14:37:00,
2013-02-06 07:42:00,36.5,12.1,29.95,WSW,253,7.0,12.0,36,0.00,,,0.00,97,WeatherCatV1.12B45,2013-02-06 14:42:00,
2013-02-06 07:47:00,36.9,12.5,29.95,NW,325,9.0,11.0,36,0.00,,,0.00,114,WeatherCatV1.12B45,2013-02-06 14:47:00,
2013-02-06 07:52:00,37.2,12.7,29.95,WNW,296,2.0,6.0,36,0.00,,,0.00,134,WeatherCatV1.12B45,2013-02-06 14:52:00,
2013-02-06 07:57:00,37.5,12.4,29.95,West,265,1.0,8.0,35,0.00,,,0.00,151,WeatherCatV1.12B45,2013-02-06 14:57:00,
2013-02-06 08:02:00,37.8,12.0,29.95,West,267,7.0,8.0,34,0.00,,,0.00,167,WeatherCatV1.12B45,2013-02-06 15:02:00,
2013-02-06 08:07:00,38.2,12.3,29.95,WNW,299,10.0,12.0,34,0.00,,,0.00,183,WeatherCatV1.12B45,2013-02-06 15:07:00,
2013-02-06 08:12:00,38.5,11.9,29.95,WSW,256,4.0,9.0,33,0.00,,,0.00,199,WeatherCatV1.12B45,2013-02-06 15:12:00,
2013-02-06 08:17:00,38.8,11.5,29.95,WSW,250,8.0,14.0,32,0.00,,,0.00,215,WeatherCatV1.12B45,2013-02-06 15:17:00,
2013-02-06 08:22:00,38.9,11.6,29.95,WSW,257,7.0,12.0,32,0.00,,,0.00,230,WeatherCatV1.12B45,2013-02-06 15:22:00,
2013-02-06 08:27:00,39.2,11.1,29.95,WSW,254,8.0,11.0,31,0.00,,,0.00,246,WeatherCatV1.12B45,2013-02-06 15:27:00,
2013-02-06 08:32:00,39.5,11.4,29.95,West,278,6.0,10.0,31,0.00,,,0.00,262,WeatherCatV1.12B45,2013-02-06 15:32:00,
2013-02-06 08:37:00,39.8,11.7,29.95,WSW,258,10.0,12.0,31,0.00,,,0.00,278,WeatherCatV1.12B45,2013-02-06 15:37:00,
2013-02-06 08:42:00,40.1,11.9,29.95,West,275,6.0,11.0,31,0.00,,,0.00,294,WeatherCatV1.12B45,2013-02-06 15:42:00,
2013-02-06 08:47:00,40.1,11.9,29.95,SW,223,7.0,7.0,31,0.00,,,0.00,311,WeatherCatV1.12B45,2013-02-06 15:47:00,
2013-02-06 08:52:00,40.3,11.4,29.95,WSW,258,0.0,9.0,30,0.00,,,0.00,324,WeatherCatV1.12B45,2013-02-06 15:52:00,
2013-02-06 08:57:00,40.6,10.9,29.95,WNW,296,7.0,9.0,29,0.00,,,0.00,343,WeatherCatV1.12B45,2013-02-06 15:57:00,
2013-02-06 09:02:00,40.6,10.9,29.95,WSW,251,11.0,12.0,29,0.00,,,0.00,357,WeatherCatV1.12B45,2013-02-06 16:02:00,
2013-02-06 09:07:00,40.8,10.2,29.95,SSW,209,3.0,3.0,28,0.00,,,0.00,373,WeatherCatV1.12B45,2013-02-06 16:07:00,
2013-02-06 09:12:00,41.2,10.6,29.95,SW,232,6.0,8.0,28,0.00,,,0.00,391,WeatherCatV1.12B45,2013-02-06 16:12:00,
2013-02-06 09:17:00,41.5,10.0,29.95,West,280,5.0,12.0,27,0.00,,,0.00,406,WeatherCatV1.12B45,2013-02-06 16:17:00,
2013-02-06 09:22:00,41.6,10.9,29.95,WNW,287,7.0,11.0,28,0.00,,,0.00,422,WeatherCatV1.12B45,2013-02-06 16:22:00,
2013-02-06 09:27:00,42.1,10.6,29.95,West,270,3.0,10.0,27,0.00,,,0.00,435,WeatherCatV1.12B45,2013-02-06 16:27:00,
2013-02-06 09:32:00,42.1,10.6,29.95,WNW,287,6.0,13.0,27,0.00,,,0.00,417,WeatherCatV1.12B45,2013-02-06 16:32:00,
2013-02-06 09:37:00,41.6,10.1,29.95,West,272,5.0,16.0,27,0.00,,,0.00,461,WeatherCatV1.12B45,2013-02-06 16:37:00,
2013-02-06 09:42:00,41.8,11.1,29.95,SW,234,1.0,12.0,28,0.00,,,0.00,456,WeatherCatV1.12B45,2013-02-06 16:42:00,
2013-02-06 09:47:00,42.2,10.6,29.95,SSW,198,7.0,10.0,27,0.00,,,0.00,491,WeatherCatV1.12B45,2013-02-06 16:47:00,
2013-02-06 09:52:00,42.3,9.9,29.95,WSW,248,12.0,16.0,26,0.00,,,0.00,512,WeatherCatV1.12B45,2013-02-06 16:52:00,
2013-02-06 09:57:00,42.3,9.9,29.95,West,261,1.0,8.0,26,0.00,,,0.00,524,WeatherCatV1.12B45,2013-02-06 16:57:00,
2013-02-06 10:02:00,42.6,9.3,29.94,SW,226,7.0,12.0,25,0.00,,,0.00,496,WeatherCatV1.12B45,2013-02-06 17:02:00,
2013-02-06 10:07:00,42.5,10.1,29.94,West,261,10.0,11.0,26,0.00,,,0.00,509,WeatherCatV1.12B45,2013-02-06 17:07:00,
2013-02-06 10:12:00,42.8,10.3,29.94,West,272,13.0,13.0,26,0.00,,,0.00,523,WeatherCatV1.12B45,2013-02-06 17:12:00,
2013-02-06 10:17:00,42.5,9.2,29.95,West,272,8.0,16.0,25,0.00,,,0.00,535,WeatherCatV1.12B45,2013-02-06 17:17:00,
2013-02-06 10:22:00,42.3,10.7,29.95,WNW,298,11.0,22.0,27,0.00,,,0.00,491,WeatherCatV1.12B45,2013-02-06 17:22:00,
2013-02-06 10:27:00,42.3,10.7,29.95,NW,304,12.0,20.0,27,0.00,,,0.00,579,WeatherCatV1.12B45,2013-02-06 17:27:00,
2013-02-06 10:32:00,42.5,10.9,29.95,SSW,208,11.0,19.0,27,0.00,,,0.00,579,WeatherCatV1.12B45,2013-02-06 17:32:00,
2013-02-06 10:37:00,42.5,10.9,29.95,WSW,254,11.0,18.0,27,0.00,,,0.00,572,WeatherCatV1.12B45,2013-02-06 17:37:00,
2013-02-06 10:42:00,42.5,10.9,29.95,WNW,296,8.0,19.0,27,0.00,,,0.00,516,WeatherCatV1.12B45,2013-02-06 17:42:00,
2013-02-06 10:47:00,42.5,11.7,29.94,WNW,282,16.0,18.0,28,0.00,,,0.00,623,WeatherCatV1.12B45,2013-02-06 17:47:00,
2013-02-06 10:52:00,42.3,10.7,29.94,West,277,7.0,19.0,27,0.00,,,0.00,577,WeatherCatV1.12B45,2013-02-06 17:52:00,
2013-02-06 10:57:00,42.2,11.5,29.94,West,267,7.0,16.0,28,0.00,,,0.00,577,WeatherCatV1.12B45,2013-02-06 17:57:00,
2013-02-06 11:02:00,42.5,11.7,29.95,West,275,11.0,22.0,28,0.00,,,0.00,619,WeatherCatV1.12B45,2013-02-06 18:02:00,
2013-02-06 11:08:00,42.6,11.8,29.95,WSW,251,16.0,24.0,28,0.00,,,0.00,655,WeatherCatV1.12B45,2013-02-06 18:08:00,
2013-02-06 11:13:00,42.8,12.0,29.95,West,268,18.0,20.0,28,0.00,,,0.00,718,WeatherCatV1.12B45,2013-02-06 18:13:00,
2013-02-06 11:18:00,42.8,12.0,29.95,WSW,241,9.0,17.0,28,0.00,,,0.00,802,WeatherCatV1.12B45,2013-02-06 18:18:00,
2013-02-06 11:23:00,43.1,11.4,29.95,WSW,239,10.0,19.0,27,0.00,,,0.00,795,WeatherCatV1.12B45,2013-02-06 18:23:00,
2013-02-06 11:28:00,41.9,12.8,29.95,West,272,12.0,15.0,30,0.00,,,0.00,304,WeatherCatV1.12B45,2013-02-06 18:28:00,
2013-02-06 11:33:00,41.5,12.4,29.94,SW,233,11.0,17.0,30,0.00,,,0.00,202,WeatherCatV1.12B45,2013-02-06 18:33:00,
2013-02-06 11:38:00,41.3,12.2,29.94,WNW,285,11.0,17.0,30,0.00,,,0.00,220,WeatherCatV1.12B45,2013-02-06 18:38:00,
2013-02-06 11:43:00,41.8,11.9,29.94,SW,226,17.0,18.0,29,0.00,,,0.00,220,WeatherCatV1.12B45,2013-02-06 18:43:00,
2013-02-06 11:48:00,42.5,11.7,29.94,SW,232,11.0,16.0,28,0.00,,,0.00,544,WeatherCatV1.12B45,2013-02-06 18:48:00,
2013-02-06 11:53:00,42.8,12.0,29.94,West,263,10.0,17.0,28,0.00,,,0.00,730,WeatherCatV1.12B45,2013-02-06 18:53:00,
2013-02-06 11:58:00,43.1,12.2,29.94,SW,226,10.0,19.0,28,0.00,,,0.00,433,WeatherCatV1.12B45,2013-02-06 18:58:00,
2013-02-06 12:03:00,42.8,12.0,29.94,SSW,203,10.0,13.0,28,0.00,,,0.00,352,WeatherCatV1.12B45,2013-02-06 19:03:00,
2013-02-06 12:08:00,42.5,11.7,29.94,WSW,246,16.0,17.0,28,0.00,,,0.00,422,WeatherCatV1.12B45,2013-02-06 19:08:00,
2013-02-06 12:13:00,42.5,10.9,29.94,WSW,257,5.0,17.0,27,0.00,,,0.00,834,WeatherCatV1.12B45,2013-02-06 19:13:00,
2013-02-06 12:18:00,43.6,12.7,29.93,WSW,243,8.0,20.0,28,0.00,,,0.00,785,WeatherCatV1.12B45,2013-02-06 19:18:00,
2013-02-06 12:23:00,44.1,12.3,29.93,WSW,237,7.0,19.0,27,0.00,,,0.00,799,WeatherCatV1.12B45,2013-02-06 19:23:00,
2013-02-06 12:28:00,44.2,12.4,29.93,SSW,209,6.0,14.0,27,0.00,,,0.00,753,WeatherCatV1.12B45,2013-02-06 19:28:00,
2013-02-06 12:33:00,44.6,10.1,29.93,SW,216,11.0,21.0,24,0.00,,,0.00,662,WeatherCatV1.12B45,2013-02-06 19:33:00,
2013-02-06 12:38:00,44.5,8.1,29.93,SW,217,5.0,17.0,22,0.00,,,0.00,669,WeatherCatV1.12B45,2013-02-06 19:38:00,
2013-02-06 12:43:00,44.5,9.0,29.93,West,278,12.0,17.0,23,0.00,,,0.00,702,WeatherCatV1.12B45,2013-02-06 19:43:00,
2013-02-06 12:48:00,43.8,9.4,29.93,WSW,250,13.0,21.0,24,0.00,,,0.00,519,WeatherCatV1.12B45,2013-02-06 19:48:00,
2013-02-06 12:53:00,43.6,9.2,29.93,WSW,247,20.0,29.0,24,0.00,,,0.00,723,WeatherCatV1.12B45,2013-02-06 19:53:00,
2013-02-06 12:58:00,43.3,10.7,29.93,West,280,16.0,27.0,26,0.00,,,0.00,662,WeatherCatV1.12B45,2013-02-06 19:58:00,
2013-02-06 13:03:00,43.2,10.7,29.93,SW,229,20.0,24.0,26,0.00,,,0.00,538,WeatherCatV1.12B45,2013-02-06 20:03:00,
2013-02-06 13:08:00,42.9,10.4,29.93,SW,222,10.0,20.0,26,0.00,,,0.00,503,WeatherCatV1.12B45,2013-02-06 20:08:00,
2013-02-06 13:13:00,42.6,11.0,29.93,WSW,254,10.0,20.0,27,0.00,,,0.00,512,WeatherCatV1.12B45,2013-02-06 20:13:00,
2013-02-06 13:18:00,42.3,11.5,29.92,WSW,257,21.0,25.0,28,0.00,,,0.00,514,WeatherCatV1.12B45,2013-02-06 20:18:00,
2013-02-06 13:23:00,42.3,10.7,29.92,SSW,210,7.0,17.0,27,0.00,,,0.00,552,WeatherCatV1.12B45,2013-02-06 20:23:00,
2013-02-06 13:28:00,42.5,10.9,29.92,SW,233,14.0,20.0,27,0.00,,,0.00,593,WeatherCatV1.12B45,2013-02-06 20:28:00,
2013-02-06 13:33:00,42.6,11.0,29.92,West,267,21.0,21.0,27,0.00,,,0.00,528,WeatherCatV1.12B45,2013-02-06 20:33:00,
2013-02-06 13:38:00,42.9,11.2,29.92,SW,224,12.0,18.0,27,0.00,,,0.00,614,WeatherCatV1.12B45,2013-02-06 20:38:00,
2013-02-06 13:43:00,43.2,11.5,29.92,SSW,203,10.0,14.0,27,0.00,,,0.00,568,WeatherCatV1.12B45,2013-02-06 20:43:00,
2013-02-06 13:48:00,43.3,11.6,29.92,SSW,213,7.0,19.0,27,0.00,,,0.00,431,WeatherCatV1.12B45,2013-02-06 20:48:00,
2013-02-06 13:53:00,43.1,11.4,29.92,SW,236,9.0,12.0,27,0.00,,,0.00,588,WeatherCatV1.12B45,2013-02-06 20:53:00,
2013-02-06 13:58:00,43.2,12.3,29.92,WSW,243,9.0,14.0,28,0.00,,,0.00,445,WeatherCatV1.12B45,2013-02-06 20:58:00,
2013-02-06 14:03:00,43.2,12.3,29.92,NW,323,9.0,12.0,28,0.00,,,0.00,443,WeatherCatV1.12B45,2013-02-06 21:03:00,
2013-02-06 14:08:00,43.3,10.7,29.92,NNW,330,16.0,18.0,26,0.00,,,0.00,472,WeatherCatV1.12B45,2013-02-06 21:08:00,
2013-02-06 14:13:00,43.5,11.8,29.92,WNW,301,10.0,17.0,27,0.00,,,0.00,433,WeatherCatV1.12B45,2013-02-06 21:13:00,
2013-02-06 14:18:00,43.3,12.4,29.91,West,281,11.0,14.0,28,0.00,,,0.00,387,WeatherCatV1.12B45,2013-02-06 21:18:00,
2013-02-06 14:23:00,42.9,12.1,29.91,WSW,258,6.0,17.0,28,0.00,,,0.00,327,WeatherCatV1.12B45,2013-02-06 21:23:00,
2013-02-06 14:28:00,42.6,11.8,29.91,West,261,11.0,17.0,28,0.00,,,0.00,324,WeatherCatV1.12B45,2013-02-06 21:28:00,
2013-02-06 14:33:00,42.1,10.6,29.92,WNW,295,14.0,21.0,27,0.00,,,0.00,373,WeatherCatV1.12B45,2013-02-06 21:33:00,
2013-02-06 14:38:00,41.8,11.1,29.92,SSW,193,14.0,20.0,28,0.00,,,0.00,292,WeatherCatV1.12B45,2013-02-06 21:38:00,
2013-02-06 14:43:00,41.9,11.2,29.92,WSW,254,5.0,20.0,28,0.00,,,0.00,262,WeatherCatV1.12B45,2013-02-06 21:43:00,
2013-02-06 14:48:00,41.9,12.0,29.92,West,263,9.0,10.0,29,0.00,,,0.00,326,WeatherCatV1.12B45,2013-02-06 21:48:00,
2013-02-06 14:53:00,42.1,11.4,29.92,SSE,167,10.0,16.0,28,0.00,,,0.00,336,WeatherCatV1.12B45,2013-02-06 21:53:00,
2013-02-06 14:58:00,42.2,11.5,29.92,WNW,291,13.0,14.0,28,0.00,,,0.00,340,WeatherCatV1.12B45,2013-02-06 21:58:00,
2013-02-06 15:03:00,42.3,11.5,29.92,SW,226,0.0,13.0,28,0.00,,,0.00,282,WeatherCatV1.12B45,2013-02-06 22:03:00,
2013-02-06 15:08:00,42.3,11.5,29.92,SW,227,3.0,12.0,28,0.00,,,0.00,245,WeatherCatV1.12B45,2013-02-06 22:08:00,
2013-02-06 15:13:00,41.5,11.6,29.92,SW,219,4.0,11.0,29,0.00,,,0.00,232,WeatherCatV1.12B45,2013-02-06 22:13:00,
2013-02-06 15:18:00,41.1,12.1,29.92,WSW,256,12.0,16.0,30,0.00,,,0.00,213,WeatherCatV1.12B45,2013-02-06 22:18:00,
2013-02-06 15:23:00,40.8,12.5,29.92,SW,234,1.0,6.0,31,0.00,,,0.00,195,WeatherCatV1.12B45,2013-02-06 22:23:00,
2013-02-06 15:28:00,40.5,12.3,29.92,SW,224,7.0,14.0,31,0.00,,,0.00,153,WeatherCatV1.12B45,2013-02-06 22:28:00,
2013-02-06 15:33:00,40.2,12.7,29.93,SW,236,9.0,10.0,32,0.00,,,0.00,143,WeatherCatV1.12B45,2013-02-06 22:33:00,
2013-02-06 15:38:00,39.8,13.1,29.93,WSW,246,3.0,12.0,33,0.00,,,0.00,134,WeatherCatV1.12B45,2013-02-06 22:38:00,
2013-02-06 15:43:00,39.8,13.7,29.93,WSW,239,7.0,12.0,34,0.00,,,0.00,123,WeatherCatV1.12B45,2013-02-06 22:43:00,
2013-02-06 15:48:00,39.3,13.3,29.93,SSW,208,8.0,13.0,34,0.00,,,0.00,123,WeatherCatV1.12B45,2013-02-06 22:48:00,
2013-02-06 15:53:00,38.9,13.6,29.93,SSW,208,2.0,17.0,35,0.00,,,0.00,120,WeatherCatV1.12B45,2013-02-06 22:53:00,
2013-02-06 15:58:00,38.6,14.0,29.93,WSW,241,2.0,18.0,36,0.00,,,0.00,100,WeatherCatV1.12B45,2013-02-06 22:58:00,
2013-02-06 16:03:00,38.5,13.9,29.93,WSW,247,7.0,7.0,36,0.00,,,0.00,86,WeatherCatV1.12B45,2013-02-06 23:03:00,
2013-02-06 16:08:00,38.3,14.3,29.93,SSW,209,0.0,7.0,37,0.00,,,0.00,81,WeatherCatV1.12B45,2013-02-06 23:08:00,
2013-02-06 16:13:00,38.2,14.2,29.93,SSW,199,8.0,11.0,37,0.00,,,0.00,69,WeatherCatV1.12B45,2013-02-06 23:13:00,
2013-02-06 16:18:00,38.0,14.7,29.94,WNW,302,8.0,13.0,38,0.00,,,0.00,63,WeatherCatV1.12B45,2013-02-06 23:18:00,
2013-02-06 16:23:00,37.8,14.5,29.94,WNW,289,10.0,14.0,38,0.00,,,0.00,51,WeatherCatV1.12B45,2013-02-06 23:23:00,
2013-02-06 16:28:00,37.6,14.9,29.94,SW,233,6.0,14.0,39,0.00,,,0.00,44,WeatherCatV1.12B45,2013-02-06 23:28:00,
2013-02-06 16:33:00,37.5,14.8,29.94,SW,222,13.0,16.0,39,0.00,,,0.00,42,WeatherCatV1.12B45,2013-02-06 23:33:00,
2013-02-06 16:38:00,37.3,14.0,29.94,WSW,254,9.0,12.0,38,0.00,,,0.00,40,WeatherCatV1.12B45,2013-02-06 23:38:00,
2013-02-06 16:43:00,37.2,14.0,29.94,NW,319,3.0,13.0,38,0.00,,,0.00,37,WeatherCatV1.12B45,2013-02-06 23:43:00,
2013-02-06 16:48:00,37.2,14.0,29.94,SW,236,6.0,12.0,38,0.00,,,0.00,35,WeatherCatV1.12B45,2013-02-06 23:48:00,
2013-02-06 16:53:00,37.0,13.2,29.94,WSW,240,5.0,16.0,37,0.00,,,0.00,33,WeatherCatV1.12B45,2013-02-06 23:53:00,
2013-02-06 16:58:00,37.0,13.2,29.94,West,267,3.0,11.0,37,0.00,,,0.00,25,WeatherCatV1.12B45,2013-02-06 23:58:00,
2013-02-06 17:03:00,37.0,13.2,29.94,West,265,3.0,10.0,37,0.00,,,0.00,21,WeatherCatV1.12B45,2013-02-07 00:03:00,
2013-02-06 17:08:00,36.9,13.7,29.94,WSW,244,2.0,10.0,38,0.00,,,0.00,19,WeatherCatV1.12B45,2013-02-07 00:08:00,
2013-02-06 17:13:00,36.6,13.4,29.94,West,268,11.0,14.0,38,0.00,,,0.00,14,WeatherCatV1.12B45,2013-02-07 00:13:00,
2013-02-06 17:18:00,36.3,14.9,29.95,SW,223,8.0,18.0,41,0.00,,,0.00,11,WeatherCatV1.12B45,2013-02-07 00:18:00,
2013-02-06 17:23:00,36.0,15.2,29.95,West,275,5.0,12.0,42,0.00,,,0.00,7,WeatherCatV1.12B45,2013-02-07 00:23:00,
2013-02-06 17:28:00,35.8,16.0,29.95,SW,236,12.0,18.0,44,0.00,,,0.00,7,WeatherCatV1.12B45,2013-02-07 00:28:00,
2013-02-06 17:33:00,35.6,16.4,29.95,West,272,12.0,14.0,45,0.00,,,0.00,5,WeatherCatV1.12B45,2013-02-07 00:33:00,
2013-02-06 17:38:00,35.3,16.6,29.95,West,278,15.0,19.0,46,0.00,,,0.00,5,WeatherCatV1.12B45,2013-02-07 00:38:00,
2013-02-06 17:43:00,35.2,17.0,29.95,WNW,284,15.0,17.0,47,0.00,,,0.00,0,WeatherCatV1.12B45,2013-02-07 00:43:00,
2013-02-06 17:48:00,34.9,17.7,29.96,WSW,246,5.0,17.0,49,0.00,,,0.00,0,WeatherCatV1.12B45,2013-02-07 00:48:00,
2013-02-06 17:53:00,34.7,18.0,29.96,WSW,258,4.0,19.0,50,0.00,,,0.00,0,WeatherCatV1.12B45,2013-02-07 00:53:00,
2013-02-06 17:58:00,34.6,18.4,29.96,WNW,282,15.0,22.0,51,0.00,,,0.00,0,WeatherCatV1.12B45,2013-02-07 00:58:00,
2013-02-06 18:03:00,34.3,18.5,29.97,WNW,287,7.0,17.0,52,0.00,,,0.00,0,WeatherCatV1.12B45,2013-02-07 01:03:00,
2013-02-06 18:08:00,34.0,18.7,29.97,SW,230,10.0,19.0,53,0.00,,,0.00,0,WeatherCatV1.12B45,2013-02-07 01:08:00,
2013-02-06 18:13:00,33.8,18.9,29.97,NW,311,6.0,11.0,54,0.00,,,0.00,0,WeatherCatV1.12B45,2013-02-07 01:13:00,
2013-02-06 18:18:00,33.7,18.4,29.97,West,277,8.0,9.0,53,0.00,,,0.00,0,WeatherCatV1.12B45,2013-02-07 01:18:00,
2013-02-06 18:23:00,33.5,18.2,29.97,NNW,336,7.0,13.0,53,0.00,,,0.00,0,WeatherCatV1.12B45,2013-02-07 01:23:00,
2013-02-06 18:28:00,33.5,17.8,29.97,NW,315,2.0,12.0,52,0.00,,,0.00,0,WeatherCatV1.12B45,2013-02-07 01:28:00,
2013-02-06 18:33:00,33.5,17.3,29.98,SW,226,1.0,12.0,51,0.00,,,0.00,0,WeatherCatV1.12B45,2013-02-07 01:33:00,
2013-02-06 18:38:00,33.5,17.3,29.98,NW,313,5.0,11.0,51,0.00,,,0.00,0,WeatherCatV1.12B45,2013-02-07 01:38:00,
2013-02-06 18:43:00,33.4,17.2,29.98,SW,234,0.0,6.0,51,0.00,,,0.00,0,WeatherCatV1.12B45,2013-02-07 01:43:00,
2013-02-06 18:48:00,33.4,17.2,29.97,WNW,298,3.0,6.0,51,0.00,,,0.00,0,WeatherCatV1.12B45,2013-02-07 01:48:00,
2013-02-06 18:53:00,33.2,17.1,29.97,WSW,253,11.0,13.0,51,0.00,,,0.00,0,WeatherCatV1.12B45,2013-02-07 01:53:00,
2013-02-06 18:58:00,33.4,16.8,29.97,West,274,6.0,14.0,50,0.00,,,0.00,0,WeatherCatV1.12B45,2013-02-07 01:58:00,
2013-02-06 19:03:00,33.2,17.1,29.98,NW,308,10.0,10.0,51,0.00,,,0.00,0,WeatherCatV1.12B45,2013-02-07 02:03:00,
2013-02-06 19:08:00,33.2,17.1,29.98,WNW,289,8.0,11.0,51,0.00,,,0.00,0,WeatherCatV1.12B45,2013-02-07 02:08:00,
2013-02-06 19:13:00,33.4,17.2,29.98,West,260,9.0,10.0,51,0.00,,,0.00,0,WeatherCatV1.12B45,2013-02-07 02:13:00,
2013-02-06 19:18:00,33.4,17.2,29.98,WNW,296,8.0,17.0,51,0.00,,,0.00,0,WeatherCatV1.12B45,2013-02-07 02:18:00,
2013-02-06 19:23:00,33.4,17.2,29.98,NW,325,7.0,10.0,51,0.00,,,0.00,0,WeatherCatV1.12B45,2013-02-07 02:23:00,
2013-02-06 19:28:00,33.4,17.2,29.98,WNW,302,1.0,11.0,51,0.00,,,0.00,0,WeatherCatV1.12B45,2013-02-07 02:28:00,
2013-02-06 19:33:00,33.4,17.2,29.99,West,268,11.0,11.0,51,0.00,,,0.00,0,WeatherCatV1.12B45,2013-02-07 02:33:00,
2013-02-06 19:38:00,33.2,17.1,29.99,NW,305,3.0,6.0,51,0.00,,,0.00,0,WeatherCatV1.12B45,2013-02-07 02:38:00,
2013-02-06 19:43:00,33.1,17.4,29.99,WNW,284,4.0,13.0,52,0.00,,,0.00,0,WeatherCatV1.12B45,2013-02-07 02:43:00,
2013-02-06 19:48:00,33.1,17.0,29.99,West,275,5.0,9.0,51,0.00,,,0.00,0,WeatherCatV1.12B45,2013-02-07 02:48:00,
2013-02-06 19:53:00,33.1,17.0,29.99,NW,320,7.0,9.0,51,0.00,,,0.00,0,WeatherCatV1.12B45,2013-02-07 02:53:00,
2013-02-06 19:58:00,32.9,17.2,29.99,NW,320,6.0,11.0,52,0.00,,,0.00,0,WeatherCatV1.12B45,2013-02-07 02:58:00,
2013-02-06 20:03:00,32.8,17.1,29.99,WSW,257,5.0,14.0,52,0.00,,,0.00,0,WeatherCatV1.12B45,2013-02-07 03:03:00,
2013-02-06 20:05:00,32.9,17.2,29.99,NW,305,7.0,13.0,52,0.00,,,0.00,0,WeatherCatV1.12B45,2013-02-07 03:05:00,
2013-02-06 20:08:00,32.8,17.1,29.99,NW,315,9.0,13.0,52,0.00,,,0.00,0,WeatherCatV1.12B45,2013-02-07 03:08:00,
2013-02-06 20:10:00,32.9,17.2,29.99,NW,315,7.0,15.0,52,0.00,,,0.00,0,WeatherCatV1.12B45,2013-02-07 03:10:00,
2013-02-06 20:15:00,32.9,17.2,29.99,NW,315,7.0,15.0,52,0.00,,,0.00,0,WeatherCatV1.12B45,2013-02-07 03:15:00,
2013-02-06 20:20:00,32.9,17.2,29.99,NW,315,7.0,15.0,52,0.00,,,0.00,0,WeatherCatV1.12B45,2013-02-07 03:20:00,
2013-02-06 20:25:00,32.5,17.3,29.99,WNW,292,8.0,17.0,53,0.00,,,0.00,0,WeatherCatV1.12B45,2013-02-07 03:25:00,
2013-02-06 20:30:00,32.5,17.3,29.99,WNW,292,8.0,17.0,53,0.00,,,0.00,0,WeatherCatV1.12B45,2013-02-07 03:30:00,
2013-02-06 20:35:00,32.5,17.3,29.99,WNW,292,8.0,17.0,53,0.00,,,0.00,0,WeatherCatV1.12B45,2013-02-07 03:35:00,
2013-02-06 20:40:00,32.7,17.5,29.99,NW,315,10.0,20.0,53,0.00,,,0.00,0,WeatherCatV1.12B45,2013-02-07 03:40:00,
2013-02-06 20:45:00,32.7,17.5,29.99,NW,315,10.0,20.0,53,0.00,,,0.00,0,WeatherCatV1.12B45,2013-02-07 03:45:00,
2013-02-06 20:50:00,32.7,17.5,29.99,NW,315,10.0,20.0,53,0.00,,,0.00,0,WeatherCatV1.12B45,2013-02-07 03:50:00,
2013-02-06 20:55:00,32.5,17.3,29.99,NW,315,8.0,16.0,53,0.00,,,0.00,0,WeatherCatV1.12B45,2013-02-07 03:55:00,
2013-02-06 21:00:00,32.5,17.3,29.99,NW,315,8.0,16.0,53,0.00,,,0.00,0,WeatherCatV1.12B45,2013-02-07 04:00:00,
2013-02-06 21:05:00,32.5,17.3,29.99,NW,315,8.0,16.0,53,0.00,,,0.00,0,WeatherCatV1.12B45,2013-02-07 04:05:00,
2013-02-06 21:10:00,32.4,17.2,29.99,NW,315,8.0,17.0,53,0.00,,,0.00,0,WeatherCatV1.12B45,2013-02-07 04:10:00,
2013-02-06 21:15:00,32.4,17.2,29.99,NW,315,8.0,17.0,53,0.00,,,0.00,0,WeatherCatV1.12B45,2013-02-07 04:15:00,
2013-02-06 21:20:00,32.4,17.2,29.99,NW,315,8.0,17.0,53,0.00,,,0.00,0,WeatherCatV1.12B45,2013-02-07 04:20:00,
2013-02-06 21:25:00,32.2,17.0,29.99,NW,315,8.0,18.0,53,0.00,,,0.00,0,WeatherCatV1.12B45,2013-02-07 04:25:00,
2013-02-06 21:30:00,32.2,17.0,29.99,NW,315,8.0,18.0,53,0.00,,,0.00,0,WeatherCatV1.12B45,2013-02-07 04:30:00,
2013-02-06 21:35:00,32.2,17.0,29.99,NW,315,8.0,18.0,53,0.00,,,0.00,0,WeatherCatV1.12B45,2013-02-07 04:35:00,
2013-02-06 21:40:00,32.4,16.8,29.99,WNW,292,9.0,20.0,52,0.00,,,0.00,0,WeatherCatV1.12B45,2013-02-07 04:40:00,
2013-02-06 21:45:00,32.4,16.8,29.99,WNW,292,9.0,20.0,52,0.00,,,0.00,0,WeatherCatV1.12B45,2013-02-07 04:45:00,
2013-02-06 21:50:00,32.4,16.8,29.99,WNW,292,9.0,20.0,52,0.00,,,0.00,0,WeatherCatV1.12B45,2013-02-07 04:50:00,
2013-02-06 21:55:00,32.5,17.3,29.99,NW,315,7.0,16.0,53,0.00,,,0.00,0,WeatherCatV1.12B45,2013-02-07 04:55:00,
2013-02-06 22:00:00,32.5,17.3,29.99,NW,315,7.0,16.0,53,0.00,,,0.00,0,WeatherCatV1.12B45,2013-02-07 05:00:00,
2013-02-06 22:05:00,32.5,17.3,29.99,NW,315,7.0,16.0,53,0.00,,,0.00,0,WeatherCatV1.12B45,2013-02-07 05:05:00,
2013-02-06 22:10:00,32.1,17.8,30.00,SSW,202,4.0,13.0,55,0.00,,,0.00,0,WeatherCatV1.12B45,2013-02-07 05:10:00,
2013-02-06 22:15:00,32.1,17.8,30.00,SSW,202,4.0,13.0,55,0.00,,,0.00,0,WeatherCatV1.12B45,2013-02-07 05:15:00,
2013-02-06 22:20:00,32.1,17.8,30.00,SSW,202,4.0,13.0,55,0.00,,,0.00,0,WeatherCatV1.12B45,2013-02-07 05:20:00,
2013-02-06 22:25:00,31.3,17.9,30.00,WSW,248,4.0,10.0,57,0.00,,,0.00,0,WeatherCatV1.12B45,2013-02-07 05:25:00,
2013-02-06 22:30:00,31.3,17.9,30.00,WSW,248,4.0,10.0,57,0.00,,,0.00,0,WeatherCatV1.12B45,2013-02-07 05:30:00,
2013-02-06 22:35:00,31.3,17.9,30.00,WSW,248,4.0,10.0,57,0.00,,,0.00,0,WeatherCatV1.12B45,2013-02-07 05:35:00,
2013-02-06 22:40:00,31.6,17.7,30.00,NW,315,8.0,18.0,56,0.00,,,0.00,0,WeatherCatV1.12B45,2013-02-07 05:40:00,
2013-02-06 22:45:00,31.6,17.7,30.00,NW,315,8.0,18.0,56,0.00,,,0.00,0,WeatherCatV1.12B45,2013-02-07 05:45:00,
2013-02-06 22:50:00,31.6,17.7,30.00,NW,315,8.0,18.0,56,0.00,,,0.00,0,WeatherCatV1.12B45,2013-02-07 05:50:00,
2013-02-06 22:55:00,31.3,16.6,30.00,NW,315,8.0,17.0,54,0.00,,,0.00,0,WeatherCatV1.12B45,2013-02-07 05:55:00,
2013-02-06 23:00:00,31.3,16.6,30.00,NW,315,8.0,17.0,54,0.00,,,0.00,0,WeatherCatV1.12B45,2013-02-07 06:00:00,
2013-02-06 23:05:00,31.3,16.6,30.00,NW,315,8.0,17.0,54,0.00,,,0.00,0,WeatherCatV1.12B45,2013-02-07 06:05:00,
2013-02-06 23:10:00,31.5,16.4,30.00,NW,315,7.0,14.0,53,0.00,,,0.00,0,WeatherCatV1.12B45,2013-02-07 06:10:00,
2013-02-06 23:15:00,31.5,16.4,30.00,NW,315,7.0,14.0,53,0.00,,,0.00,0,WeatherCatV1.12B45,2013-02-07 06:15:00,
2013-02-06 23:20:00,31.5,16.4,30.00,NW,315,7.0,14.0,53,0.00,,,0.00,0,WeatherCatV1.12B45,2013-02-07 06:20:00,
2013-02-06 23:25:00,31.2,16.1,30.00,NW,315,6.0,13.0,53,0.00,,,0.00,0,WeatherCatV1.12B45,2013-02-07 06:25:00,
2013-02-06 23:30:00,31.2,16.1,30.00,NW,315,6.0,13.0,53,0.00,,,0.00,0,WeatherCatV1.12B45,2013-02-07 06:30:00,
2013-02-06 23:35:00,31.2,16.1,30.00,NW,315,6.0,13.0,53,0.00,,,0.00,0,WeatherCatV1.12B45,2013-02-07 06:35:00,
2013-02-06 23:40:00,30.9,16.7,30.01,NW,315,7.0,14.0,55,0.00,,,0.00,0,WeatherCatV1.12B45,2013-02-07 06:40:00,
2013-02-06 23:45:00,30.9,16.7,30.01,NW,315,7.0,14.0,55,0.00,,,0.00,0,WeatherCatV1.12B45,2013-02-07 06:45:00,
2013-02-06 23:50:00,30.9,16.7,30.01,NW,315,7.0,14.0,55,0.00,,,0.00,0,WeatherCatV1.12B45,2013-02-07 06:50:00,
2013-02-06 23:55:00,30.4,16.2,30.01,NW,315,2.0,11.0,55,0.00,,,0.00,0,WeatherCatV1.12B45,2013-02-07 06:55:00,